Preview of NWS' New Version of Forecast
This preview is not operational and should not be used for support decisions.

Regional Weather Roundup (RWR)

Issued by National Weather Service (NWS)

                            
000
ASUS43 KTOP 172359
RWRKS 

WEATHER ROUNDUP FOR KANSAS
NATIONAL WEATHER SERVICE GOODLAND KS
700 PM CDT SAT AUG 17 2019

NOTE:  "FAIR" INDICATES FEW OR NO CLOUDS BELOW 12,000 FEET WITH NO
SIGNIFICANT WEATHER AND/OR OBSTRUCTIONS TO VISIBILITY.

KSZ001>006-013>018-027>032-041>047-180100-
NORTHWEST KANSAS
  
CITY           SKY/WX    TMP DP  RH WIND       PRES   REMARKS
GOODLAND       CLOUDY    68  60  75 E8        29.82F                  
6HR MIN TEMP:  63; 6HR MAX TEMP:  90; 6HR PCP:  0.12;                

HAYS           SUNNY     88  74  63 SE13      29.71S HX  96           
HILL CITY      SUNNY     87  71  58 SE5       29.72S                  
6HR MIN TEMP:  87; 6HR MAX TEMP:  94;                                

RUSSELL        SUNNY     88  72  58 S18       29.70F                  
6HR MIN TEMP:  87; 6HR MAX TEMP:  90;                                

$$

KSZ061>065-074>080-084>089-180100-
SOUTHWEST KANSAS
  
CITY           SKY/WX    TMP DP  RH WIND       PRES   REMARKS
DODGE CITY     SUNNY     98  60  28 S9        29.70F HX  98           
6HR MIN TEMP:  91; 6HR MAX TEMP:  98;                                

GARDEN CITY    SUNNY     92  58  31 S8        29.73S                  
6HR MIN TEMP:  86; 6HR MAX TEMP:  95;                                

GREAT BEND     SUNNY     89  73  59 S9        29.71F HX  97           
LIBERAL        SUNNY     99  55  23 S9        29.71F HX  97           
$$

KSZ066>073-081>083-090>101-180100-
SOUTHEAST KANSAS
  
CITY           SKY/WX    TMP DP  RH WIND       PRES   REMARKS
CHANUTE        MOSUNNY   87  76  69 SE8       29.77F HX  97           
6HR MIN TEMP:  82; 6HR MAX TEMP:  88; 6HR PCP: TRACE;                

COFFEYVILLE    SUNNY     86  77  74 SE9       29.75F HX  97           
6HR MIN TEMP:  76; 6HR MAX TEMP:  87; 6HR PCP:  0.08;                

HUTCHINSON     SUNNY     88  74  63 SE17      29.72F HX  96           
6HR MIN TEMP:  83; 6HR MAX TEMP:  90;                                

MEDICINE LODGE   N/A     94  74  52 SE13      29.67F HX 104           
NEWTON         SUNNY     84  75  74 S16       29.75F                  
PARSONS        SUNNY     87  79  76 S6        29.78F HX 101           
6HR MIN TEMP:  77; 6HR MAX TEMP:  87; 6HR PCP: TRACE;                

WICHITA INTL   MOSUNNY   88  75  65 SE18G26   29.72F HX  97           
6HR MIN TEMP:  77; 6HR MAX TEMP:  90;                                

WICHITA JABRA  SUNNY     87  75  67 S14G23    29.73F HX  96           
6HR MIN TEMP:  75; 6HR MAX TEMP:  88; 6HR PCP:  0.04;                

WICHITA MCCONL SUNNY     88  73  61 E15       29.74F HX  96           
WINFIELD       SUNNY     87  75  67 SE15G24   29.74F HX  96           
6HR MIN TEMP:  78; 6HR MAX TEMP:  89; 6HR PCP:  0.02;                

$$

KSZ007>012-019>026-033>040-048>060-102>105-180100-
NORTHEAST KANSAS
  
CITY           SKY/WX    TMP DP  RH WIND       PRES   REMARKS
CONCORDIA      SUNNY     84  74  71 SE7       29.72F                  
6HR MIN TEMP:  83; 6HR MAX TEMP:  89;                                

EMPORIA        SUNNY     83  73  72 SE10      29.76F                  
6HR MIN TEMP:  80; 6HR MAX TEMP:  88;                                

LAWRENCE       SUNNY     87  73  62 S9        29.76F                  
6HR MIN TEMP:  83; 6HR MAX TEMP:  91;                                

MANHATTAN      SUNNY     87  73  62 S7        29.72F                  
6HR MIN TEMP:  85; 6HR MAX TEMP:  91;                                

OLATHE IND     SUNNY     83  72  69 S13       29.80S                  
6HR MIN TEMP:  79; 6HR MAX TEMP:  86;                                

OLATHE EXE     SUNNY     81  71  71 S12       29.80S                  
6HR MIN TEMP:  78; 6HR MAX TEMP:  85;                                

SALINA         SUNNY     87  73  62 S13G23    29.72F                  
6HR MIN TEMP:  83; 6HR MAX TEMP:  90;                                

TOPEKA BILLARD SUNNY     87  70  56 S7        29.75F                  
6HR MIN TEMP:  83; 6HR MAX TEMP:  89;                                

TOPEKA FORBES  SUNNY     87  69  54 S10       29.76F                  
6HR MIN TEMP:  84; 6HR MAX TEMP:  90;                                

$$